User: anonymous
Location: Caltech
(34.1382°N, 118.1253°W)
Time: 06:47:40
(UTC-07:00)
Language:

PAYLOAD A - Orbit

View from above orbital plane
View from above orbital plane
View from above satellite
View from above satellite

Ground track
Ground track

The orbit data is extracted from the following two-line orbital elements,

1 27840U 03031A   14109.51317376  .00000174  00000-0  67129-4 0  5195
2 27840 098.2414 140.3954 0098121 359.6638 130.8496 14.38695203567277
Epoch (UTC): 19 April 2014 12:18:58
Eccentricity: 0.0098121
inclination: 98.2414°
perigee height: 693 km
apogee height: 833 km
right ascension of ascending node: 140.3954°
argument of perigee: 359.6638°
revolutions per day: 14.38695203
mean anomaly at epoch: 130.8496°
orbit number at epoch: 56727

The dashed part of the orbit path shows where the satellite is in the earth's shadow,  

DLR